Terminal Aerodrome Forecast
Issued by NWS Mt. Holly, NJ

Current Version | Previous Version | Text Only | Print | Product List | Glossary On
Versions: 1 2 3 4 5 6 7 8 9 10 11 12 13 14 15 16 17 18 19 20 21
000
FTUS41 KPHI 010500
TAFPHL
TAF
KPHL 010539Z 0106/0212 05007KT P6SM SCT015 BKN150
      TEMPO 0107/0111 BKN015
     FM011100 02008KT P6SM BKN008 OVC012
     FM011300 04009KT P6SM BKN015
     FM011700 02008KT P6SM SCT015 BKN040
     FM020000 04007KT P6SM SCT025
     FM020500 03006KT P6SM BKN015
     FM021000 02005KT 5SM BR BKN007=

USA.gov is the U.S. government's official web portal to all federal, state and local government web resources and services.